This demonstration page uses our WeatherBlox Daily Observations layout. Learn more.

Left ArrowRight Arrow

44.31136, -96.79839

Hourly Observations for May 27, 2015

Temp ( °F °C ) Dew Point ( °F °C ) Humidity (%) Winds ( mph kmh ) Pressure ( in mb ) Visibility ( mi km ) Precip ( " mm )
12:15 am 00:15 Clear 57 14 52 11 82 82 Calm 29.85 1011 10 16 0.00 0.00
12:35 am 00:35 Clear 57 14 52 11 82 82 WSW 5 7 29.85 1011 10 16 0.00 0.00
12:55 am 00:55 Clear 57 14 52 11 82 82 SW 6 9 29.88 1012 10 16 0.00 0.00
1:15 am 01:15 Clear 57 14 52 11 82 82 SW 3 6 29.88 1012 10 16 0.00 0.00
1:35 am 01:35 Clear 57 14 52 11 82 82 WSW 3 6 29.88 1012 10 16 0.00 0.00
1:55 am 01:55 Clear 55 13 52 11 88 88 WSW 3 6 29.91 1013 10 16 0.00 0.00
2:15 am 02:15 Clear 55 13 52 11 88 88 WSW 5 7 29.91 1013 10 16 0.00 0.00
2:35 am 02:35 Clear 55 13 52 11 88 88 WSW 7 11 29.91 1013 10 16 0.00 0.00
2:55 am 02:55 Clear 55 13 52 11 88 88 SW 5 7 29.91 1013 10 16 0.00 0.00
3:15 am 03:15 Clear 55 13 50 10 82 82 WSW 6 9 29.91 1013 10 16 0.00 0.00
3:35 am 03:35 Clear 54 12 50 10 88 88 SW 3 6 29.91 1013 10 16 0.00 0.00
3:55 am 03:55 Clear 54 12 48 9 82 82 WSW 3 6 29.91 1013 10 16 0.00 0.00
4:15 am 04:15 Clear 54 12 48 9 82 82 Calm 29.91 1013 10 16 0.00 0.00
4:35 am 04:35 Clear 54 12 48 9 82 82 Calm 29.94 1014 10 16 0.00 0.00
4:55 am 04:55 Clear 54 12 48 9 82 82 Calm 29.94 1014 10 16 0.00 0.00
5:15 am 05:15 Clear 54 12 48 9 82 82 W 3 6 29.94 1014 10 16 0.00 0.00
5:35 am 05:35 Clear 54 12 48 9 82 82 Calm 29.94 1014 10 16 0.00 0.00
5:55 am 05:55 Sunny 54 12 48 9 82 82 W 5 7 29.97 1015 10 16 0.00 0.00
6:15 am 06:15 Sunny 54 12 48 9 82 82 WSW 7 11 29.97 1015 10 16 0.00 0.00
6:35 am 06:35 Sunny 54 12 48 9 82 82 W 6 9 29.97 1015 10 16 0.00 0.00
6:55 am 06:55 Sunny 55 13 48 9 77 77 WSW 5 7 29.97 1015 10 16 0.00 0.00
7:15 am 07:15 Sunny 55 13 48 9 77 77 W 5 7 29.97 1015 10 16 0.00 0.00
7:35 am 07:35 Sunny 57 14 52 11 82 82 Calm 29.97 1015 10 16 0.00 0.00
7:55 am 07:55 Sunny 59 15 54 12 82 82 NNW 3 6 29.94 1014 10 16 0.00 0.00
8:15 am 08:15 Sunny 61 16 52 11 72 72 NW 6 9 29.94 1014 10 16 0.00 0.00
8:35 am 08:35 Sunny 63 17 54 12 73 73 NW 8 13 29.97 1015 10 16 0.00 0.00
8:55 am 08:55 Sunny 64 18 54 12 68 68 WNW 6 9 29.97 1015 10 16 0.00 0.00
9:15 am 09:15 Sunny 66 19 54 12 64 64 WNW 9 15 29.97 1015 10 16 0.00 0.00
9:35 am 09:35 Sunny 68 20 54 12 60 60 NW 8 13 29.94 1014 10 16 0.00 0.00
9:55 am 09:55 Sunny 70 21 54 12 57 57 NW 8 13 29.94 1014 10 16 0.00 0.00
10:15 am 10:15 Sunny 72 22 54 12 53 53 NW 9 15 29.94 1014 10 16 0.00 0.00
10:35 am 10:35 Sunny 72 22 54 12 53 53 NW 10 17 29.94 1014 10 16 0.00 0.00
10:55 am 10:55 Sunny 73 23 54 12 50 50 NW 8 13 29.94 1014 10 16 0.00 0.00
11:15 am 11:15 Sunny 73 23 52 11 47 47 WNW 10 17 29.94 1014 10 16 0.00 0.00
11:35 am 11:35 Sunny 75 24 50 10 41 41 NW 7 11 29.97 1015 10 16 0.00 0.00
11:55 am 11:55 Sunny 75 24 52 11 44 44 WNW 9 15 29.97 1015 10 16 0.00 0.00
12:15 pm 12:15 Sunny 77 25 48 9 36 36 NW 12 19 29.94 1014 10 16 0.00 0.00
12:35 pm 12:35 Sunny 79 26 50 10 37 37 NW 10 17 29.94 1014 10 16 0.00 0.00
12:55 pm 12:55 Sunny 79 26 48 9 34 34 W 7 11 29.91 1013 10 16 0.00 0.00
1:15 pm 13:15 Sunny 79 26 48 9 34 34 W 8 13 29.94 1014 10 16 0.00 0.00
1:35 pm 13:35 Sunny 79 26 46 8 32 32 WNW 7 11 29.94 1014 10 16 0.00 0.00
1:55 pm 13:55 Sunny 81 27 46 8 30 30 NW 10 17 29.94 1014 10 16 0.00 0.00
2:15 pm 14:15 Sunny 81 27 46 8 30 30 WNW 7 11 29.91 1013 10 16 0.00 0.00
2:35 pm 14:35 Sunny 81 27 46 8 30 30 SSW 5 7 29.91 1013 10 16 0.00 0.00
2:55 pm 14:55 Mostly Sunny 81 27 48 9 32 32 NNE 5 7 29.91 1013 10 16 0.00 0.00
3:15 pm 15:15 Partly Cloudy 81 27 46 8 30 30 NNW 6 9 29.91 1013 10 16 0.00 0.00
3:35 pm 15:35 Sunny 81 27 46 8 30 30 WSW 3 6 29.91 1013 10 16 0.00 0.00
3:55 pm 15:55 Sunny 81 27 46 8 30 30 NNW 6 9 29.91 1013 10 16 0.00 0.00
4:15 pm 16:15 Sunny 81 27 46 8 30 30 W 8 13 29.91 1013 10 16 0.00 0.00
4:35 pm 16:35 Sunny 82 28 45 7 26 26 Calm 29.91 1013 10 16 0.00 0.00
4:55 pm 16:55 Sunny 82 28 45 7 26 26 WSW 3 6 29.91 1013 10 16 0.00 0.00
5:15 pm 17:15 Sunny 82 28 46 8 28 28 Calm 29.91 1013 10 16 0.00 0.00
5:35 pm 17:35 Sunny 82 28 45 7 26 26 SSW 5 7 29.91 1013 10 16 0.00 0.00
5:55 pm 17:55 Sunny 82 28 45 7 26 26 SSW 5 7 29.91 1013 10 16 0.00 0.00
6:15 pm 18:15 Sunny 81 27 46 8 30 30 SSW 5 7 29.91 1013 10 16 0.00 0.00
6:35 pm 18:35 Partly Cloudy 81 27 48 9 32 32 S 5 7 29.88 1012 10 16 0.00 0.00
6:55 pm 18:55 Cloudy 81 27 46 8 30 30 S 3 6 29.88 1012 10 16 0.00 0.00
7:15 pm 19:15 Mostly Cloudy 79 26 52 11 39 39 S 5 7 29.88 1012 10 16 0.00 0.00
7:35 pm 19:35 Cloudy 79 26 50 10 37 37 S 6 9 29.91 1013 10 16 0.00 0.00
7:55 pm 19:55 Cloudy 79 26 50 10 37 37 SSW 7 11 29.91 1013 10 16 0.00 0.00
8:15 pm 20:15 Mostly Cloudy 77 25 52 11 42 42 SW 7 11 29.91 1013 10 16 0.00 0.00
8:35 pm 20:35 Mostly Sunny 73 23 52 11 47 47 SSW 6 9 29.94 1014 10 16 0.00 0.00
8:55 pm 20:55 Sunny 73 23 50 10 44 44 SSW 5 7 29.94 1014 10 16 0.00 0.00
9:15 pm 21:15 Clear 73 23 50 10 44 44 S 5 7 29.94 1014 10 16 0.00 0.00
9:35 pm 21:35 Clear 73 23 52 11 47 47 SSW 5 7 29.97 1015 10 16 0.00 0.00
9:55 pm 21:55 Clear 73 23 50 10 44 44 S 6 9 29.97 1015 10 16 0.00 0.00
10:15 pm 22:15 Clear 72 22 52 11 50 50 S 6 9 29.97 1015 10 16 0.00 0.00
10:35 pm 22:35 Clear 70 21 54 12 57 57 SSW 3 6 29.97 1015 10 16 0.00 0.00
10:55 pm 22:55 Clear 68 20 52 11 56 56 Calm 29.97 1015 10 16 0.00 0.00
11:15 pm 23:15 Clear 66 19 54 12 64 64 SSE 7 11 30.00 1016 10 16 0.00 0.00
11:35 pm 23:35 Clear 68 20 52 11 56 56 SSE 7 11 29.97 1015 10 16 0.00 0.00
11:55 pm 23:55 Clear 66 19 54 12 64 64 SE 9 15 30.00 1016 10 16 0.00 0.00

Powered by AerisWeather